Location: Newark
(48.5667°N, 12.8167°E)
Time: 00:04:24
(UTC+00:00)

METEOR M2 - Pass Details

Date: 18 November 2019
Orbit: 818 x 828 km, 98.5° (Epoch: 05 December)

Event Time Altitude Azimuth Distance (km) Brightness Sun altitude
Exits shadow 18:36:02 20° 355° (N) 1,818 ? -31.1°
Drops below altitude 10° 18:37:39 10° 351° (N) 2,436 ? -31.4°
Sets 18:40:02 0° 348° (NNW) 3,372 ? -31.8°
